{"data":{"norad_id":53426,"intl_designator":"2022-097AQ","name":"STARLINK-4558","alt_names":[],"object_type":"PAYLOAD","status":"ACTIVE","operator":null,"country":"US","launch_date":"2022-08-10","launch_site_code":"AFETR","launch_vehicle":null,"mission":null,"orbit_class":"UNKNOWN","rcs_meters":null,"size_class":null,"mass_kg":null,"dimensions":null,"purposes":["comms"],"wikipedia_slug":null,"has_3d_model":false,"image_url":null,"decayed_at":null,"tle_current":{"epoch":"2026-09-19T14:29:23.801280Z","epoch_age_seconds":152894,"freshness":"FRESH","line1":"1 53426U 22097AQ  26262.60374770  .00000157  00000+0  15777-4 0  9995","line2":"2 53426  53.1603 297.8392 0001103  74.0645 286.0479 15.34388633228272","mean_motion":15.34388633,"eccentricity":0.0001103,"inclination_deg":53.1603,"raan_deg":297.8392,"arg_perigee_deg":74.0645,"mean_anomaly_deg":286.0479,"bstar":1.5777e-5,"rev_number":22827,"period_min":93.848453320757,"perigee_km":461.98247713015,"apogee_km":463.49157394018,"semimajor_km":6840.8740255352,"source":"CELESTRAK","updated_at":"2026-09-20T09:00:40.230953Z"}}}